Weather Roundup
Issued by NWS Springfield, MO

Home | Current Version | Previous Version | Text Only | Print | Product List | Glossary On
Versions: 1 2 3 4 5 6 7 8 9 10 11 12 13 14 15 16 17 18 19 20 21 22 23 24 25 26 27 28 29 30 31 32 33 34 35 36 37 38 39 40 41 42 43 44 45 46 47 48 49 50
000
NZUS99 KSGF 301659
HRRSGF

HOURLY WEATHER
NATIONAL WEATHER SERVICE SPRINGFIELD MO
1200 PM CDT TUE JUN 30 2015

......SGF CWA......

CITY           SKY/WX    TMP DP  RH WIND       PRES   REMARKS
SPRINGFIELD    MOSUNNY   80  66  62 W9        29.99S
JOPLIN         SUNNY     83  70  64 W8        29.99F
WEST PLAINS    SUNNY     81  67  62 W8        30.00S
ROLLA          SUNNY     79  68  69 W7        29.94S
OSAGE BEACH    SUNNY     79  66  65 SW5       29.95S

......SURROUNDING SGF CWA......

CITY           SKY/WX    TMP DP  RH WIND       PRES   REMARKS
CHANUTE        SUNNY     88  65  46 CALM      29.97S HX  90
PARSONS        SUNNY     86  69  56 VRB3      29.98F HX  90
COFFEYVILLE    SUNNY     87  70  56 SW6       29.97F HX  92
EMPORIA        MOSUNNY   90  60  36 W7        29.97S
SILOAM SPRINGS MOSUNNY   84  70  61 S6        30.02F
HARRISON AR    SUNNY     82  67  60 VRB6      30.03S
NEAR YELLVILLE SUNNY     84  66  54 W7        29.97F

......KANSAS AND MISSOURI......

CITY           SKY/WX    TMP DP  RH WIND       PRES   REMARKS
KANSAS CTY INT CLOUDY    82  67  60 NW7       29.96R
COLUMBIA       SUNNY     80  68  66 W8        29.93S
SEDALIA        MOSUNNY   84  68  58 W7        29.95F
ST JOSEPH      MOSUNNY   83  66  56 W7        29.93F
ST LOUIS       PTSUNNY   82  67  60 SW8       29.91S
SPIRIT OF STL  CLOUDY    80  70  71 VRB6      29.90S
KIRKSVILLE     SUNNY     78  66  66 W6        29.92S
WICHITA        MOSUNNY   94  57  28 W9        29.97F HX  92
TOPEKA         MOSUNNY   85  67  54 NW3       29.95S
OLATHE         SUNNY     84  64  50 NW7       29.95F

......TENNESSEE......

CITY           SKY/WX    TMP DP  RH WIND       PRES   REMARKS
MEMPHIS        CLOUDY    84  73  69 SW8       29.98R HX  90
NASHVILLE      PTSUNNY   83  70  64 W7        29.94F

......ARKANSAS.......

CITY           SKY/WX    TMP DP  RH WIND       PRES   REMARKS
FAYETTEVILLE   PTSUNNY   79  67  66 VRB3      30.03F
FT SMITH       PTSUNNY   86  66  51 W7        30.00F
LITTLE ROCK    PTSUNNY   88  68  51 N9        29.99S HX  91

......OKLAHOMA.......

CITY           SKY/WX    TMP DP  RH WIND       PRES   REMARKS
TULSA          MOSUNNY   91  65  41 W12       29.97F HX  93
PONCA CITY     SUNNY     90  65  43 W3        29.98F HX  92
MCALESTER      SUNNY     87  71  58 VRB6      30.02F HX  93
OKLAHOMA CITY  MOSUNNY   85  68  56 SW8       30.03S

......IOWA............

CITY           SKY/WX    TMP DP  RH WIND       PRES   REMARKS
DES MOINES     CLOUDY    78  65  63 NW3       29.89F
QUAD CITIES    SUNNY     78  61  55 N7        29.85S

......ILLINOIS........

CITY           SKY/WX    TMP DP  RH WIND       PRES   REMARKS
QUINCY         SUNNY     78  66  66 W10       29.88S
CHICAGO        MOSUNNY   72  61  68 NW12      29.82R




USA.gov is the U.S. government's official web portal to all federal, state and local government web resources and services.